Tracking 33747 objects as of 11-Apr-2026
HD Live streaming from Space Station
objects crossing your sky now

STARLINK-1423

Track STARLINK-1423 now!
10-day predictions
STARLINK-1423 is classified as:


NORAD ID: 45710
Int'l Code: 2020-035BF
Perigee: 391.8 km
Apogee: 400.8 km
Inclination: 53.0 °
Period: 92.3 minutes
Semi major axis: 6767 km
RCS: Unknown
Launch date: June 4, 2020
Source: United States (US)
Launch site: AIR FORCE EASTERN TEST RANGE (AFETR)
Your satellite tracking list
Your tracking list is empty




NASA's NSSDC Master Catalog

Two Line Element Set (TLE):
1 45710U 20035BF  26100.83619813  .00107256  00000-0  13159-2 0  9997
2 45710  53.0447 226.3667 0006646 273.6775  86.3477 15.59493553324354
Source of the keplerian elements: AFSPC